This demonstration page uses our WeatherBlox Daily Observations layout. Learn more.

Left ArrowRight Arrow

Hourly Observations for April 27, 2021

Temp ( °F °C ) Dew Point ( °F °C ) Humidity (%) Winds ( mph kmh ) Pressure ( in mb ) Visibility ( mi km ) Precip ( " mm )
12:53 am 00:53 Clear 50 10 41 5 71 71 Calm 29.93 1014 10 16 0.00 0.00
1:53 am 01:53 Clear 48 8.9 41 5 77 77 NNW 5 7 29.93 1014 10 16 0.00 0.00
2:53 am 02:53 Clear 47 8.3 41 5 80 80 NW 6 9 29.93 1014 10 16 0.00 0.00
3:53 am 03:53 Clear 49 9.4 39 3.9 69 69 N 7 11 29.95 1014 10 16 0.00 0.00
4:53 am 04:53 Clear 49 9.4 38 3.3 66 66 N 7 11 29.97 1015 10 16 0.00 0.00
5:53 am 05:53 Clear 47 8.3 37 2.8 69 69 NNW 5 7 29.99 1016 10 16 0.00 0.00
6:53 am 06:53 Sunny 48 8.9 38 3.3 68 68 NNW 7 11 30.01 1016 10 16 0.00 0.00
7:53 am 07:53 Sunny 53 11.7 39 3.9 59 59 NW 6 9 30.03 1017 10 16 0.00 0.00
8:53 am 08:53 Sunny 59 15 38 3.3 46 46 NNW 10 17 30.04 1017 10 16 0.00 0.00
9:53 am 09:53 Sunny 63 17.2 37 2.8 38 38 NNW 12 19 30.04 1017 10 16 0.00 0.00
10:53 am 10:53 Sunny 66 18.9 35 1.7 32 32 N 15 24 30.03 1017 10 16 0.00 0.00
11:53 am 11:53 Sunny 70 21.1 32 0 25 25 N 23 37 30.02 1017 10 16 0.00 0.00
12:53 pm 12:53 Sunny 72 22.2 34 1.1 25 25 N 12 19 30.01 1016 10 16 0.00 0.00
1:53 pm 13:53 Sunny 73 22.8 33 0.6 23 23 NNW 10 17 30.01 1016 10 16 0.00 0.00
2:53 pm 14:53 Sunny 76 24.4 34 1.1 22 22 VRB 7 11 30.01 1016 10 16 0.00 0.00
3:53 pm 15:53 Sunny 77 25 32 0 19 19 VRB 3 6 29.98 1015 10 16 0.00 0.00
4:53 pm 16:53 Sunny 78 25.6 30 -1.1 17 17 N 8 13 29.98 1015 10 16 0.00 0.00
5:53 pm 17:53 Sunny 78 25.6 28 -2.2 16 16 NW 8 13 29.98 1015 10 16 0.00 0.00
6:53 pm 18:53 Sunny 78 25.6 28 -2.2 16 16 N 7 11 29.99 1016 10 16 0.00 0.00
7:53 pm 19:53 Sunny 71 21.7 33 0.6 25 25 N 3 6 30.00 1016 10 16 0.00 0.00
8:53 pm 20:53 Clear 66 18.9 34 1.1 30 30 NW 5 7 30.03 1017 10 16 0.00 0.00
9:53 pm 21:53 Clear 62 16.7 38 3.3 41 41 N 5 7 30.05 1018 10 16 0.00 0.00
10:53 pm 22:53 Clear 63 17.2 38 3.3 40 40 N 6 9 30.07 1018 10 16 0.00 0.00
11:53 pm 23:53 Clear 59 15 38 3.3 46 46 NNW 5 7 30.09 1019 10 16 0.00 0.00

Powered by AerisWeather